Change the Weather History Date:

Tuesday, December 4, 2012

  Actual Average Record
Temperature  
Mean Temperature 66 °F -  
Max Temperature 78 °F 75 °F 86 °F (1983)
Min Temperature 55 °F 53 °F 35 °F (1974)
Cooling Degree Days 2    
Growing Degree Days 16 (Base 50)    
Moisture  
Dew Point 55 °F    
Average Humidity 69    
Maximum Humidity 96    
Minimum Humidity 42    
Precipitation  
Precipitation 0.00 in - - ()
Sea Level Pressure  
Sea Level Pressure 30.25 in    
Wind  
Wind Speed 6 mph (East)    
Max Wind Speed 12 mph    
Max Gust Speed -    
Visibility 10 miles    
Events      
Averages and records for this station are not official NWS values.
T = Trace of Precipitation, MM = Missing Value Source: NWS Daily Summary

Daily Weather History Graph

Daily Weather History Graph

Search for Another Location

Airport or City:

Trip Planner

Search our weather history database for the weather conditions in past years. The results will help you decide how hot, cold, wet, or windy it might be!

Date:

Astronomy

Dec. 04, 2012 Rise Set
Actual Time 7:03 AM EST 5:31 PM EST
Civil Twilight 6:38 AM EST 5:56 PM EST
Nautical Twilight 6:09 AM EST 6:25 PM EST
Astronomical Twilight 5:40 AM EST 6:54 PM EST
Moon 10:58 PM EST (12/4) 11:14 AM EST (12/4)
Length of Visible Light 11h 18m
Length of Day
10h 27m
Waning Gibbous, 69% of the Moon is Illuminated
Dec 4
Waning Gibbous
Dec 6
Last Quarter
Dec 13
New
Dec 20
First Quarter
Dec 28
Full

Hourly Weather History & Observations

Time (EST) Temp. Dew Point Humidity Pressure Visibility Wind Dir Wind Speed Gust Speed Precip Events Conditions
1:53 AM 60.1 °F 57.9 °F 93% 30.25 in 10.0 mi NE 3.5 mph - N/A   Clear
2:53 AM 63.0 °F 59.0 °F 87% 30.25 in 10.0 mi East 6.9 mph - N/A   Clear
3:53 AM 61.0 °F 57.9 °F 90% 30.24 in 10.0 mi East 4.6 mph - N/A   Clear
4:53 AM 60.1 °F 57.0 °F 90% 30.24 in 10.0 mi East 5.8 mph - N/A   Clear
6:53 AM 55.0 °F 54.0 °F 96% 30.26 in 10.0 mi ENE 3.5 mph - N/A   Clear
7:53 AM 60.1 °F 57.9 °F 93% 30.28 in 10.0 mi NE 3.5 mph - N/A   Clear
8:53 AM 66.0 °F 57.9 °F 75% 30.29 in 10.0 mi East 5.8 mph - N/A   Clear
9:53 AM 72.0 °F 55.0 °F 55% 30.31 in 10.0 mi ENE 6.9 mph - N/A   Clear
10:53 AM 75.9 °F 51.1 °F 42% 30.30 in 10.0 mi East 10.4 mph - N/A   Clear
11:53 AM 75.9 °F 52.0 °F 43% 30.28 in 10.0 mi East 6.9 mph - N/A   Mostly Cloudy
12:53 PM 77.0 °F 52.0 °F 42% 30.25 in 10.0 mi East 8.1 mph - N/A   Scattered Clouds
1:53 PM 78.1 °F 53.1 °F 42% 30.22 in 10.0 mi East 8.1 mph - N/A   Clear
2:53 PM 78.1 °F 53.1 °F 42% 30.21 in 10.0 mi East 11.5 mph - N/A   Mostly Cloudy
3:53 PM 75.9 °F 54.0 °F 46% 30.21 in 10.0 mi East 10.4 mph - N/A   Partly Cloudy
4:53 PM 73.9 °F 55.9 °F 53% 30.21 in 10.0 mi ESE 10.4 mph - N/A   Clear
5:53 PM 71.1 °F 55.9 °F 59% 30.23 in 10.0 mi ESE 6.9 mph - N/A   Mostly Cloudy
6:53 PM 68.0 °F 57.0 °F 68% 30.23 in 10.0 mi East 5.8 mph - N/A   Clear
7:53 PM 66.0 °F 55.0 °F 68% 30.24 in 10.0 mi East 6.9 mph - N/A   Clear
8:53 PM 63.0 °F 55.0 °F 75% 30.23 in 10.0 mi NE 4.6 mph - N/A   Clear
9:53 PM 61.0 °F 55.0 °F 81% 30.23 in 10.0 mi ENE 3.5 mph - N/A   Clear
10:53 PM 60.1 °F 55.9 °F 86% 30.22 in 10.0 mi NE 3.5 mph - N/A   Clear
11:53 PM 61.0 °F 55.9 °F 83% 30.22 in 10.0 mi Calm Calm - N/A   Scattered Clouds